Retour au catalogue

COSMOS 1519

GLONASS

ActifNavigationMEO
NORAD 14590·PAYLOAD·🇷🇺 Russia

Lancé Dec 29, 1983 depuis Baikonur Cosmodrome

Loading…

Prochains Passages (prochaines 24 heures)

TLE

FraisSource: Space-Track

Époque: Sep 13, 2026, 05:14 UTC

1 14590U 83127A   26256.21873470 -.00000067  00000-0  00000+0 0  9996
2 14590  66.3822 326.2573 0011797 186.6654 175.7622  2.13099207273024

Suivez COSMOS 1519 en temps réel avec AllMySat

Download on the App Store